Regional Weather Roundup
Issued by NWS Nashville, TN

Home | Current Version | Previous Version | Text Only | Print | Product List | Glossary On
Versions: 1 2 3 4 5 6 7 8 9 10 11 12 13 14 15 16 17 18 19 20 21 22 23 24 25 26 27 28 29 30 31 32 33 34 35 36 37 38 39 40 41 42 43 44 45 46 47 48 49
603
ASUS44 KOHX 191910
RWROHX
MIDDLE TENNESSEE HOURLY WEATHER ROUNDUP
NATIONAL WEATHER SERVICE NASHVILLE TN
100 PM CST FRI JAN 19 2018

NOTE: "FAIR" INDICATES FEW OR NO CLOUDS BELOW 12,000 FEET WITH
NO SIGNIFICANT WEATHER AND/OR OBSTRUCTIONS TO VISIBILITY.

* THESE REPORTS ARE NOT UNDER NWS QUALITY CONTROL AND MAY NOT
  REPORT WEATHER SUCH AS PRECIPITATION AND FOG.


TNZ005>011-023>034-057-059-062>066-078-080-192000
...NORTHERN MIDDLE TENNESSEE...

CITY           SKY/WX    TMP DP  RH WIND       PRES   REMARKS
CLARKSVILLE      N/A     39  16  39 S13       30.20F WCI  31
CROSSVILLE       N/A     42   3  19 SW6       30.20F
GALLATIN       SUNNY     45  18  33 VRB6      30.25F
DICKSON          N/A     43  21  41 SW10      30.21F
NASHVILLE        N/A     45  16  31 SW9       30.24F
PORTLAND       SUNNY     39  19  45 SW9       30.20F WCI  33
SMYRNA           N/A     45  16  31 S8        30.25F
SPARTA         SUNNY     41  18  38 S8        30.22F
SPRINGFIELD    SUNNY     41  18  38 SW10      30.19F
WEST NASHVILLE SUNNY     46  18  31 S8        30.21F
$$
TNZ056-058-060-061-075>077-079-093>097-192000
...SOUTHERN MIDDLE TENNESSEE...

CITY           SKY/WX    TMP DP  RH WIND       PRES   REMARKS
COLUMBIA       SUNNY     45  18  33 S6G13     30.22F
FAYETTEVILLE   SUNNY     45  12  26 SW9       30.25F
MCMINNVILLE    SUNNY     43  14  31 SW10      30.24F
PULASKI        SUNNY     46  18  31 S5G12     30.26F
SHELBYVILLE    SUNNY     43  16  33 SW10      30.25F
TULLAHOMA      SUNNY     43  10  26 SW5       30.24F
WINCHESTER     SUNNY     43  12  28 W6        30.26F
$$


...KEY TO REMARKS...
VSB - VISIBILITY IN MILES
WCI - WIND CHILL INDEX
HX  - HEAT INDEX





USA.gov is the U.S. government's official web portal to all federal, state and local government web resources and services.